This is the latest recevied weather packets stored in our database for station/object KQ4OSL. If no packets are shown the sender has not sent any weather packets the latest 1 day(s).
| Time | Temp. | Humidity | Pressure | Rain* | Wind** | Luminosity | Snow |
|---|---|---|---|---|---|---|---|
| 1778016609 | 24.44° C | 49% | 1014.9 hPa | 0 mm | 2.68 m/s, 206° | 151 W/m² | - |
| 1778016306 | 23.89° C | 49% | 1015.3 hPa | 0 mm | 1.79 m/s, 210° | 336 W/m² | - |
| 1778016002 | 23.89° C | 48% | 1015.2 hPa | 0 mm | 1.34 m/s, 238° | 293 W/m² | - |
| 1778015700 | 24.44° C | 47% | 1015.1 hPa | 0 mm | 2.68 m/s, 141° | 324 W/m² | - |
| 1778015396 | 24.44° C | 48% | 1015.1 hPa | 0 mm | 1.34 m/s, 205° | 361 W/m² | - |
| 1778015093 | 24.44° C | 47% | 1015.1 hPa | 0 mm | 1.34 m/s, 193° | 364 W/m² | - |
| 1778014790 | 24.44° C | 47% | 1015.1 hPa | 0 mm | 1.34 m/s, 226° | 394 W/m² | - |
| 1778014488 | 24.44° C | 46% | 1015.4 hPa | 0 mm | 1.79 m/s, 228° | 403 W/m² | - |
| 1778014185 | 25° C | 47% | 1015.3 hPa | 0 mm | 2.24 m/s, 241° | 398 W/m² | - |
| 1778013883 | 24.44° C | 47% | 1015.5 hPa | 0 mm | 0.89 m/s, 261° | 422 W/m² | - |
| 1778013580 | 24.44° C | 46% | 1015.4 hPa | 0 mm | 1.79 m/s, 263° | 435 W/m² | - |
| 1778013276 | 24.44° C | 45% | 1015.4 hPa | 0 mm | 0.45 m/s, 219° | 451 W/m² | - |
| 1778012973 | 25° C | 44% | 1015.4 hPa | 0 mm | 0.89 m/s, 245° | 469 W/m² | - |
| 1778012669 | 24.44° C | 45% | 1015.7 hPa | 0 mm | 0.45 m/s, 242° | 466 W/m² | - |
| 1778012366 | 25° C | 44% | 1015.5 hPa | 0 mm | 0.89 m/s, 236° | 503 W/m² | - |
| 1778012062 | 25° C | 44% | 1015.7 hPa | 0 mm | 0.45 m/s, 259° | 258 W/m² | - |
| 1778011761 | 24.44° C | 43% | 1015.7 hPa | 0 mm | 0.89 m/s, 233° | 525 W/m² | - |
| 1778011457 | 24.44° C | 45% | 1015.9 hPa | 0 mm | 2.24 m/s, 202° | 544 W/m² | - |
| 1778011153 | 24.44° C | 45% | 1016 hPa | 0 mm | 2.24 m/s, 168° | 542 W/m² | - |
| 1778010851 | 24.44° C | 43% | 1015.9 hPa | 0 mm | 2.24 m/s, 213° | 571 W/m² | - |
| 1778010548 | 24.44° C | 44% | 1015.8 hPa | 0 mm | 0.89 m/s, 242° | 579 W/m² | - |
| 1778010245 | 24.44° C | 45% | 1016.1 hPa | 0 mm | 2.24 m/s, 219° | 549 W/m² | - |
| 1778009945 | 25° C | 46% | 1016.1 hPa | 0 mm | 1.34 m/s, 228° | 592 W/m² | - |
| 1778009644 | 25° C | 46% | 1016 hPa | 0 mm | 1.34 m/s, 202° | 610 W/m² | - |
| 1778009341 | 24.44° C | 49% | 1016 hPa | 0 mm | 1.34 m/s, 211° | 620 W/m² | - |
* Rain latest hour (hover to see other rain measurements)
** Current wind speed in m/s (hover to see current wind gust speed)